Regional Weather Roundup
Issued by NWS

Home | Current Version | Previous Version | Text Only | Print | Product List | Glossary Off
Versions: 1 2 3 4 5 6 7 8 9 10 11 12 13 14 15 16 17 18 19 20 21 22 23 24 25 26 27 28 29 30 31 32 33 34 35 36 37 38 39 40 41 42 43 44 45 46 47 48 49 50

000
ASUS43 KIND 250059
RWRIN

WEATHER ROUNDUP FOR INDIANA
NATIONAL WEATHER SERVICE INDIANAPOLIS IN
900 PM EDT MON APR 24 2017

NOTE: "FAIR" INDICATES FEW OR NO CLOUDS BELOW 12,000 FEET WITH NO
SIGNIFICANT WEATHER AND/OR OBSTRUCTIONS TO VISIBILITY.

* - STATION DOES NOT REPORT WEATHER SUCH AS PRECIPITATION OR FOG.

+ - STATION NOT QUALITY CONTROLLED BY THE NATIONAL WEATHER SERVICE.
    USE DATA WITH CAUTION...ESPECIALLY DEWPOINT AND RELATIVE
    HUMIDITY OBSERVATIONS.

INZ001>003-010>013-019-020-250200-
NORTHWEST INDIANA

CITY           SKY/WX    TMP DP  RH WIND       PRES   REMARKS
GARY /AIRPORT/ MOCLDY    55  41  58 CALM      29.80F
KNOX *+        CLEAR     63   5  10 E6        29.80S
MONTICELLO +   CLEAR     67  35  30 E3        29.77S

$$

LMZ046-743>745-250200-
SOUTHERN LAKE MICHIGAN

STATION/POSITION TIME  TEMP    WIND        PRES    WAVE
                       AIR SEA DIR/SP/G            HT
                 (UTC) (F)     (DEG/KT/KT) (MB)    (FT)
BURNS HARBOR     0040   69     100/  8/ 11 1009.1F
MICHIGAN CITY    0030   70      90/  9/ 12   N/A

$$

INZ004-005-014>016-021>024-250200-
NORTH CENTRAL INDIANA

CITY           SKY/WX    TMP DP  RH WIND       PRES   REMARKS
ELKHART        CLEAR     64  32  29 E12       29.83S
GOSHEN         CLEAR     61  34  36 E13       29.82F
SOUTH BEND     CLOUDY    65  33  30 E12       29.83S

$$

INZ006>009-017-018-025>027-250200-
NORTHEAST INDIANA

CITY           SKY/WX    TMP DP  RH WIND       PRES   REMARKS
ANGOLA *+      CLEAR     59  36  41 E12       29.85F
FORT WAYNE     PTCLDY    62  36  37 E14       29.83S
KENDALLVILLE + CLEAR     60  32  35 E10G18    29.85S

$$

INZ028-029-035-036-043>045-051>053-250200-
WEST CENTRAL INDIANA

CITY           SKY/WX    TMP DP  RH WIND       PRES   REMARKS
CRAWFORDSVL +  CLEAR     63  41  44 E6        29.76F
LAFAYETTE      CLEAR     62  40  44 E9        29.76S
TERRE HAUTE    CLEAR     66  44  45 E6        29.75S

$$

INZ030>032-037>040-046>048-054>057-064-065-250200-
CENTRAL INDIANA

CITY           SKY/WX    TMP DP  RH WIND       PRES   REMARKS
CP ATTERBURY + CLEAR     64  52  63 E5        29.77S
INDIANAPOLIS   PTCLDY    70  47  43 E10       29.77R
-EAGLE CREEK   CLEAR     70  46  42 E7        29.76S
KOKOMO +       CLEAR     63  42  46 NE12      29.80S
SHELBYVILLE    CLEAR     70  50  49 E13       29.77R

$$

INZ033-034-041-042-049-050-058-059-250200-
EAST CENTRAL INDIANA

CITY           SKY/WX    TMP DP  RH WIND       PRES   REMARKS
MUNCIE         CLEAR     69  50  50 SE13      29.79S
RICHMOND +     CLOUDY    63  50  63 E17       29.83R

$$

INZ060-061-067>069-081>083-085>088-250200-
SOUTHWEST INDIANA

CITY           SKY/WX    TMP DP  RH WIND       PRES   REMARKS
EVANSVILLE     CLEAR     69  50  50 CALM      29.73F
HUNTINGBURG *+ CLEAR     68  48  48 E5        29.74S

$$

INZ062-063-066-070>080-084-089>092-250200-
SOUTH CENTRAL AND SOUTHEAST INDIANA

CITY           SKY/WX    TMP DP  RH WIND       PRES   REMARKS
BLOOMINGTON    CLOUDY    71  49  45 SE5       29.76S
MADISON *+     CLEAR     64  50  59 E7        29.80S
SEYMOUR +      CLOUDY    70  52  52 SE9       29.77R

$$





USA.gov is the U.S. government's official web portal to all federal, state and local government web resources and services.